1546390800.57,15756,0.0,0.0,-10.73,-11.55,-11.45,0,*64
1546390801.81,15757,0.0,0.0,-10.73,-11.55,-11.45,0,*65
1546390803.06,15758,0.0,0.0,-10.73,-11.55,-11.45,0,*6A
1546390804.33,15759,0.0,0.0,-10.75,-11.55,-11.45,0,*6D
1546390805.6,15760,0.0,0.0,-10.75,-11.55,-11.45,0,*67
1546390806.87,15761,0.0,0.0,-10.75,-11.55,-11.41,0,*62
1546390808.11,15762,0.0,0.0,-10.73,-11.55,-11.45,0,*63
1546390809.39,15763,0.0,0.0,-10.73,-11.55,-11.55,0,*63
1546390810.64,15764,0.0,0.0,-10.73,-11.45,-11.55,0,*65
1546390811.91,15765,0.0,0.0,-10.75,-11.55,-11.45,0,*62
1546390813.18,15766,0.0,0.0,-10.75,-11.55,-11.45,0,*61
1546390814.42,15767,0.0,0.0,-10.73,-11.59,-11.45,0,*6A
1546390815.69,15768,0.0,0.0,-10.75,-11.55,-11.45,0,*6F
1546390816.94,15769,0.0,0.0,-10.75,-11.45,-11.41,0,*6B
1546390818.21,15770,0.0,0.0,-10.75,-11.59,-11.41,0,*6E
1546390819.48,15771,0.0,0.0,-10.75,-11.55,-11.45,0,*67
1546390820.75,15772,0.0,0.0,-10.75,-11.55,-11.45,0,*64
1546390822.01,15773,0.0,0.0,-10.77,-11.51,-11.51,0,*66
1546390823.28,15774,0.0,0.0,-10.75,-11.55,-11.45,0,*62
1546390824.55,15775,0.0,0.0,-10.75,-11.55,-11.45,0,*63
1546390825.81,15776,0.0,0.0,-10.75,-11.55,-11.45,0,*60
1546390827.08,15777,0.0,0.0,-10.75,-11.55,-11.45,0,*61
1546390828.33,15778,0.0,0.0,-10.75,-11.45,-11.45,0,*6F
1546390829.6,15779,0.0,0.0,-10.75,-11.55,-11.45,0,*6F
1546390830.84,15780,0.0,0.0,-10.77,-11.63,-11.45,0,*6E
1546390832.1,15781,0.0,0.0,-10.77,-11.59,-11.51,0,*63
1546390833.39,15782,0.0,0.0,-10.75,-11.55,-11.59,0,*66
1546390834.65,15783,0.0,0.0,-10.77,-11.51,-11.59,0,*61
1546390835.9,15784,0.0,0.0,-10.75,-11.45,-11.45,0,*6C
1546390837.16,15785,0.0,0.0,-10.77,-11.63,-11.59,0,*66
1546390838.44,15786,0.0,0.0,-10.75,-11.45,-11.55,0,*6F
1546390839.69,15787,0.0,0.0,-10.75,-11.45,-11.45,0,*6F
1546390840.96,15788,0.0,0.0,-10.75,-11.55,-11.45,0,*61
1546390842.25,15789,0.0,0.0,-10.75,-11.55,-11.55,0,*61
1546390843.53,15790,0.0,0.0,-10.75,-11.45,-11.55,0,*68
1546390844.8,15791,0.0,0.0,-10.75,-11.55,-11.45,0,*69
1546390846.06,15792,0.0,0.0,-10.77,-11.59,-11.51,0,*61
1546390847.33,15793,0.0,0.0,-10.75,-11.55,-11.41,0,*6F
1546390848.59,15794,0.0,0.0,-10.77,-11.63,-11.51,0,*6E
1546390849.84,15795,0.0,0.0,-10.75,-11.45,-11.41,0,*68
1546390851.09,15796,0.0,0.0,-10.75,-11.45,-11.45,0,*6F
1546390852.34,15797,0.0,0.0,-10.75,-11.45,-11.45,0,*6E
1546390853.61,15798,0.0,0.0,-10.75,-11.55,-11.41,0,*64
1546390854.88,15799,0.0,0.0,-10.75,-11.55,-11.41,0,*65
1546390856.13,15800,0.0,0.0,-10.75,-11.45,-11.45,0,*6F
1546390857.39,15801,0.0,0.0,-10.77,-11.59,-11.51,0,*64
1546390858.64,15802,0.0,0.0,-10.75,-11.45,-11.45,0,*6D
1546390859.89,15803,0.0,0.0,-10.75,-11.45,-11.41,0,*68
1546390861.16,15804,0.0,0.0,-10.75,-11.55,-11.45,0,*6A
1546390862.43,15805,0.0,0.0,-10.75,-11.55,-11.45,0,*6B
1546390863.7,15806,0.0,0.0,-10.75,-11.55,-11.45,0,*68
1546390864.96,15807,0.0,0.0,-10.77,-11.51,-11.51,0,*6A
1546390866.2,15808,0.0,0.0,-10.73,-11.55,-11.45,0,*60
1546390867.47,15809,0.0,0.0,-10.75,-11.55,-11.45,0,*67
1546390868.74,15810,0.0,0.0,-10.75,-11.59,-11.45,0,*63
1546390870.01,15811,0.0,0.0,-10.75,-11.55,-11.45,0,*6E
1546390871.28,15812,0.0,0.0,-10.75,-11.55,-11.45,0,*6D
1546390872.53,15813,0.0,0.0,-10.75,-11.45,-11.45,0,*6D
1546390873.78,15814,0.0,0.0,-10.75,-11.45,-11.45,0,*6A
1546390875.03,15815,0.0,0.0,-10.75,-11.45,-11.41,0,*6F
1546390876.28,15816,0.0,0.0,-10.75,-11.45,-11.45,0,*68
1546390877.53,15817,0.0,0.0,-10.75,-11.45,-11.45,0,*69
1546390878.77,15818,0.0,0.0,-10.75,-11.45,-11.45,0,*66
1546390880.02,15819,0.0,0.0,-10.75,-11.45,-11.45,0,*67
1546390881.27,15820,0.0,0.0,-10.75,-11.45,-11.45,0,*6D
1546390882.52,15821,0.0,0.0,-10.75,-11.45,-11.45,0,*6C
1546390883.78,15822,0.0,0.0,-10.77,-11.51,-11.51,0,*6D
1546390885.02,15823,0.0,0.0,-10.77,-11.59,-11.45,0,*61
1546390886.28,15824,0.0,0.0,-10.75,-11.55,-11.45,0,*68
1546390887.52,15825,0.0,0.0,-10.77,-11.59,-11.45,0,*67
1546390888.78,15826,0.0,0.0,-10.77,-11.59,-11.51,0,*61
1546390890.02,15827,0.0,0.0,-10.77,-11.55,-11.45,0,*69
1546390891.28,15828,0.0,0.0,-10.77,-11.51,-11.59,0,*6F
1546390892.54,15829,0.0,0.0,-10.77,-11.59,-11.51,0,*6E
1546390893.81,15830,0.0,0.0,-10.75,-11.55,-11.45,0,*6D
1546390895.07,15831,0.0,0.0,-10.77,-11.51,-11.51,0,*6F
1546390896.34,15832,0.0,0.0,-10.75,-11.55,-11.41,0,*6B
1546390897.63,15833,0.0,0.0,-10.75,-11.55,-11.51,0,*6B
1546390898.88,15834,0.0,0.0,-10.75,-11.45,-11.45,0,*68
1546390900.14,15835,0.0,0.0,-10.77,-11.63,-11.51,0,*6A
1546390901.38,15836,0.0,0.0,-10.77,-11.51,-11.45,0,*6D
1546390902.6,15837,0.0,0.0,-10.77,-11.45,-11.45,0,*69
1546390903.86,15838,0.0,0.0,-10.77,-11.55,-11.51,0,*62
1546390905.12,15839,0.0,0.0,-10.77,-11.59,-11.51,0,*6F
1546390906.38,15840,0.0,0.0,-10.77,-11.59,-11.51,0,*61
1546390907.62,15841,0.0,0.0,-10.77,-11.59,-11.45,0,*65
1546390908.85,15842,0.0,0.0,-10.77,-11.51,-11.45,0,*6E
1546390910.12,15843,0.0,0.0,-10.75,-11.55,-11.45,0,*69
1546390911.38,15844,0.0,0.0,-10.77,-11.59,-11.51,0,*65
1546390912.64,15845,0.0,0.0,-10.77,-11.59,-11.51,0,*64
1546390913.89,15846,0.0,0.0,-10.75,-11.45,-11.41,0,*69
1546390915.15,15847,0.0,0.0,-10.77,-11.51,-11.59,0,*66
1546390916.41,15848,0.0,0.0,-10.77,-11.51,-11.51,0,*61
1546390917.66,15849,0.0,0.0,-10.75,-11.45,-11.45,0,*62
1546390918.92,15850,0.0,0.0,-10.77,-11.63,-11.51,0,*69
1546390920.16,15851,0.0,0.0,-10.77,-11.59,-11.45,0,*64
1546390921.42,15852,0.0,0.0,-10.77,-11.59,-11.51,0,*62
1546390922.69,15853,0.0,0.0,-10.75,-11.55,-11.45,0,*68
1546390923.95,15854,0.0,0.0,-10.77,-11.59,-11.51,0,*64
1546390925.21,15855,0.0,0.0,-10.77,-11.59,-11.51,0,*65
1546390926.47,15856,0.0,0.0,-10.77,-11.51,-11.51,0,*6E
1546390927.73,15857,0.0,0.0,-10.77,-11.59,-11.59,0,*6F
1546390928.97,15858,0.0,0.0,-10.77,-11.59,-11.45,0,*6D
1546390930.23,15859,0.0,0.0,-10.77,-11.59,-11.51,0,*69
1546390931.48,15860,0.0,0.0,-10.75,-11.45,-11.45,0,*69
1546390932.74,15861,0.0,0.0,-10.77,-11.51,-11.51,0,*6A
1546390934.0,15862,0.0,0.0,-10.77,-11.51,-11.59,0,*61
1546390935.26,15863,0.0,0.0,-10.77,-11.51,-11.51,0,*68
1546390936.55,15864,0.0,0.0,-10.79,-11.59,-11.51,0,*69
1546390937.8,15865,0.0,0.0,-10.75,-11.45,-11.41,0,*68
1546390939.06,15866,0.0,0.0,-10.77,-11.51,-11.51,0,*6D
1546390940.32,15867,0.0,0.0,-10.77,-11.59,-11.59,0,*6C
1546390941.58,15868,0.0,0.0,-10.77,-11.59,-11.51,0,*6B
1546390942.85,15869,0.0,0.0,-10.75,-11.55,-11.45,0,*61
1546390944.14,15870,0.0,0.0,-10.79,-11.59,-11.51,0,*6C
1546390945.43,15871,0.0,0.0,-10.79,-11.51,-11.51,0,*65
1546390946.72,15872,0.0,0.0,-10.79,-11.59,-11.59,0,*66
1546390947.98,15873,0.0,0.0,-10.79,-11.59,-11.45,0,*6A
1546390949.25,15874,0.0,0.0,-10.77,-11.59,-11.51,0,*66
1546390950.5,15875,0.0,0.0,-10.77,-11.51,-11.51,0,*6F
1546390951.77,15876,0.0,0.0,-10.75,-11.55,-11.45,0,*6F
1546390953.03,15877,0.0,0.0,-10.77,-11.59,-11.51,0,*65
1546390954.33,15878,0.0,0.0,-10.79,-11.59,-11.51,0,*64
1546390955.59,15879,0.0,0.0,-10.77,-11.59,-11.51,0,*6B
1546390956.88,15880,0.0,0.0,-10.79,-11.59,-11.51,0,*63
1546390958.17,15881,0.0,0.0,-10.79,-11.59,-11.51,0,*62
1546390959.41,15882,0.0,0.0,-10.77,-11.45,-11.51,0,*62
1546390960.67,15883,0.0,0.0,-10.77,-11.51,-11.51,0,*66
1546390961.96,15884,0.0,0.0,-10.79,-11.59,-11.51,0,*67
1546390963.25,15885,0.0,0.0,-10.79,-11.59,-11.51,0,*66
1546390964.54,15886,0.0,0.0,-10.79,-11.51,-11.51,0,*6D
1546390965.8,15887,0.0,0.0,-10.77,-11.59,-11.51,0,*6A
1546390967.08,15888,0.0,0.0,-10.79,-11.51,-11.51,0,*63
1546390968.37,15889,0.0,0.0,-10.79,-11.51,-11.51,0,*62
1546390969.64,15890,0.0,0.0,-10.79,-11.59,-11.45,0,*67
1546390970.91,15891,0.0,0.0,-10.81,-11.51,-11.55,0,*68
1546390972.19,15892,0.0,0.0,-10.79,-11.51,-11.51,0,*68
1546390973.48,15893,0.0,0.0,-10.79,-11.51,-11.51,0,*69
1546390974.77,15894,0.0,0.0,-10.79,-11.51,-11.51,0,*6E
1546390976.06,15895,0.0,0.0,-10.79,-11.59,-11.59,0,*6F
1546390977.35,15896,0.0,0.0,-10.79,-11.59,-11.51,0,*64
1546390978.64,15897,0.0,0.0,-10.79,-11.51,-11.51,0,*6D
1546390979.92,15898,0.0,0.0,-10.79,-11.51,-11.51,0,*62
1546390981.21,15899,0.0,0.0,-10.79,-11.51,-11.51,0,*63
1546390982.5,15900,0.0,0.0,-10.79,-11.59,-11.51,0,*6A
1546390983.79,15901,0.0,0.0,-10.79,-11.59,-11.51,0,*6B
1546390985.08,15902,0.0,0.0,-10.79,-11.51,-11.51,0,*60
1546390986.34,15903,0.0,0.0,-10.77,-11.59,-11.59,0,*6F
1546390987.6,15904,0.0,0.0,-10.77,-11.59,-11.59,0,*68
1546390988.87,15905,0.0,0.0,-10.77,-11.63,-11.51,0,*68
1546390990.13,15906,0.0,0.0,-10.77,-11.51,-11.59,0,*62
1546390991.42,15907,0.0,0.0,-10.79,-11.63,-11.51,0,*64
1546390992.7,15908,0.0,0.0,-10.79,-11.51,-11.51,0,*6A
1546390993.99,15909,0.0,0.0,-10.79,-11.59,-11.51,0,*63
1546390995.29,15910,0.0,0.0,-10.79,-11.59,-11.51,0,*6B
1546390996.57,15911,0.0,0.0,-10.79,-11.51,-11.51,0,*62
1546390997.86,15912,0.0,0.0,-10.79,-11.59,-11.51,0,*69
1546390999.15,15913,0.0,0.0,-10.79,-11.59,-11.51,0,*68
1546391000.45,15914,0.0,0.0,-10.79,-11.59,-11.51,0,*6F
1546391001.74,15915,0.0,0.0,-10.79,-11.59,-11.51,0,*6E
1546391003.01,15916,0.0,0.0,-10.81,-11.55,-11.55,0,*62
1546391004.28,15917,0.0,0.0,-10.79,-11.45,-11.51,0,*61
1546391005.57,15918,0.0,0.0,-10.79,-11.59,-11.59,0,*6B
1546391006.86,15919,0.0,0.0,-10.79,-11.51,-11.51,0,*6A
1546391008.09,15920,0.0,0.0,-10.77,-11.63,-11.45,0,*6A
1546391009.39,15921,0.0,0.0,-10.79,-11.59,-11.51,0,*69
1546391010.68,15922,0.0,0.0,-10.79,-11.59,-11.55,0,*6E
1546391011.95,15923,0.0,0.0,-10.81,-11.55,-11.51,0,*60
1546391013.21,15924,0.0,0.0,-10.81,-11.55,-11.51,0,*67
1546391014.5,15925,0.0,0.0,-10.79,-11.59,-11.51,0,*6D
1546391015.77,15926,0.0,0.0,-10.81,-11.67,-11.51,0,*64
1546391017.06,15927,0.0,0.0,-10.79,-11.59,-11.59,0,*67
1546391018.35,15928,0.0,0.0,-10.79,-11.59,-11.51,0,*60
1546391019.64,15929,0.0,0.0,-10.79,-11.51,-11.55,0,*6D
1546391020.93,15930,0.0,0.0,-10.79,-11.51,-11.51,0,*61
1546391022.22,15931,0.0,0.0,-10.79,-11.59,-11.51,0,*68
1546391023.49,15932,0.0,0.0,-10.79,-11.63,-11.45,0,*67
1546391024.76,15933,0.0,0.0,-10.81,-11.63,-11.55,0,*60
1546391026.03,15934,0.0,0.0,-10.81,-11.59,-11.55,0,*6E
1546391027.32,15935,0.0,0.0,-10.79,-11.59,-11.51,0,*6C
1546391028.62,15936,0.0,0.0,-10.79,-11.59,-11.59,0,*67
1546391029.91,15937,0.0,0.0,-10.79,-11.59,-11.51,0,*6E
1546391031.18,15938,0.0,0.0,-10.79,-11.45,-11.51,0,*6C
1546391032.46,15939,0.0,0.0,-10.79,-11.51,-11.51,0,*68
1546391033.73,15940,0.0,0.0,-10.79,-11.51,-11.45,0,*63
1546391035.02,15941,0.0,0.0,-10.79,-11.51,-11.51,0,*67
1546391036.31,15942,0.0,0.0,-10.79,-11.59,-11.51,0,*6C
1546391037.58,15943,0.0,0.0,-10.81,-11.63,-11.55,0,*67
1546391038.86,15944,0.0,0.0,-10.79,-11.51,-11.51,0,*62
1546391040.16,15945,0.0,0.0,-10.79,-11.59,-11.63,0,*6A
1546391041.43,15946,0.0,0.0,-10.81,-11.63,-11.55,0,*62
1546391042.7,15947,0.0,0.0,-10.81,-11.55,-11.55,0,*66
1546391043.99,15948,0.0,0.0,-10.79,-11.59,-11.51,0,*66
1546391045.27,15949,0.0,0.0,-10.81,-11.63,-11.55,0,*6D
1546391046.53,15950,0.0,0.0,-10.79,-11.59,-11.45,0,*6A
1546391047.82,15951,0.0,0.0,-10.79,-11.59,-11.51,0,*6E
1546391049.09,15952,0.0,0.0,-10.81,-11.63,-11.51,0,*63
1546391050.36,15953,0.0,0.0,-10.79,-11.51,-11.45,0,*61
1546391051.63,15954,0.0,0.0,-10.81,-11.55,-11.55,0,*64
1546391052.92,15955,0.0,0.0,-10.79,-11.51,-11.63,0,*63
1546391054.19,15956,0.0,0.0,-10.81,-11.55,-11.55,0,*66
1546391055.48,15957,0.0,0.0,-10.79,-11.59,-11.51,0,*68
1546391056.75,15958,0.0,0.0,-10.81,-11.55,-11.55,0,*68
1546391058.02,15959,0.0,0.0,-10.79,-11.59,-11.45,0,*63
1546391059.31,15960,0.0,0.0,-10.79,-11.51,-11.59,0,*6C
1546391060.6,15961,0.0,0.0,-10.79,-11.51,-11.51,0,*65
1546391061.86,15962,0.0,0.0,-10.81,-11.59,-11.51,0,*69
1546391063.13,15963,0.0,0.0,-10.81,-11.63,-11.55,0,*65
1546391064.42,15964,0.0,0.0,-10.79,-11.59,-11.51,0,*68
1546391065.7,15965,0.0,0.0,-10.81,-11.63,-11.55,0,*63
1546391066.96,15966,0.0,0.0,-10.81,-11.67,-11.51,0,*60
1546391068.23,15967,0.0,0.0,-10.81,-11.55,-11.55,0,*64
1546391069.5,15968,0.0,0.0,-10.81,-11.63,-11.55,0,*6E
1546391070.78,15969,0.0,0.0,-10.81,-11.63,-11.55,0,*6F
1546391072.05,15970,0.0,0.0,-10.81,-11.67,-11.63,0,*66
1546391073.32,15971,0.0,0.0,-10.81,-11.55,-11.63,0,*66
1546391074.61,15972,0.0,0.0,-10.79,-11.51,-11.51,0,*67
1546391075.9,15973,0.0,0.0,-10.79,-11.59,-11.51,0,*6E
1546391077.17,15974,0.0,0.0,-10.79,-11.59,-11.45,0,*6C
1546391078.44,15975,0.0,0.0,-10.81,-11.63,-11.55,0,*62
1546391079.71,15976,0.0,0.0,-10.81,-11.55,-11.55,0,*64
1546391080.98,15977,0.0,0.0,-10.81,-11.63,-11.55,0,*60
1546391082.25,15978,0.0,0.0,-10.79,-11.59,-11.45,0,*60
1546391083.52,15979,0.0,0.0,-10.81,-11.63,-11.55,0,*6E
1546391084.79,15980,0.0,0.0,-10.81,-11.67,-11.55,0,*6C
1546391086.06,15981,0.0,0.0,-10.81,-11.63,-11.55,0,*69
1546391087.33,15982,0.0,0.0,-10.81,-11.63,-11.55,0,*6A
1546391088.6,15983,0.0,0.0,-10.81,-11.63,-11.51,0,*6F
1546391089.89,15984,0.0,0.0,-10.79,-11.59,-11.51,0,*66
1546391091.16,15985,0.0,0.0,-10.81,-11.63,-11.55,0,*6D
1546391092.43,15986,0.0,0.0,-10.81,-11.63,-11.55,0,*6E
1546391093.7,15987,0.0,0.0,-10.81,-11.55,-11.51,0,*6E
1546391094.97,15988,0.0,0.0,-10.81,-11.55,-11.55,0,*65
1546391096.24,15989,0.0,0.0,-10.81,-11.55,-11.51,0,*60
1546391097.52,15990,0.0,0.0,-10.79,-11.51,-11.51,0,*6B
1546391098.79,15991,0.0,0.0,-10.81,-11.51,-11.55,0,*69
1546391100.06,15992,0.0,0.0,-10.81,-11.55,-11.51,0,*6A
1546391101.33,15993,0.0,0.0,-10.81,-11.55,-11.55,0,*6F
1546391102.62,15994,0.0,0.0,-10.79,-11.51,-11.51,0,*6F
1546391103.9,15995,0.0,0.0,-10.79,-11.51,-11.51,0,*6E
1546391105.17,15996,0.0,0.0,-10.81,-11.55,-11.51,0,*6E
1546391106.44,15997,0.0,0.0,-10.81,-11.63,-11.55,0,*6E
1546391107.71,15998,0.0,0.0,-10.81,-11.63,-11.55,0,*61
1546391108.98,15999,0.0,0.0,-10.81,-11.67,-11.55,0,*64
1546391110.25,16000,0.0,0.0,-10.81,-11.63,-11.55,0,*6A
1546391111.52,16001,0.0,0.0,-10.81,-11.55,-11.55,0,*6E
1546391112.79,16002,0.0,0.0,-10.81,-11.67,-11.55,0,*6C
1546391114.07,16003,0.0,0.0,-10.81,-11.63,-11.55,0,*69
1546391115.33,16004,0.0,0.0,-10.81,-11.55,-11.51,0,*6F
1546391116.6,16005,0.0,0.0,-10.81,-11.63,-11.55,0,*6F
1546391117.87,16006,0.0,0.0,-10.81,-11.55,-11.55,0,*69
1546391119.14,16007,0.0,0.0,-10.81,-11.55,-11.51,0,*6C
1546391120.41,16008,0.0,0.0,-10.81,-11.63,-11.51,0,*66
1546391121.7,16009,0.0,0.0,-10.83,-11.63,-11.55,0,*61
1546391123.0,16010,0.0,0.0,-10.83,-11.63,-11.51,0,*6D
1546391124.26,16011,0.0,0.0,-10.81,-11.63,-11.51,0,*6E
1546391125.53,16012,0.0,0.0,-10.81,-11.67,-11.55,0,*6D
1546391126.8,16013,0.0,0.0,-10.79,-11.59,-11.45,0,*67
1546391128.07,16014,0.0,0.0,-10.81,-11.51,-11.55,0,*6E
1546391129.36,16015,0.0,0.0,-10.83,-11.55,-11.55,0,*69
1546391130.63,16016,0.0,0.0,-10.81,-11.55,-11.55,0,*68
1546391131.91,16017,0.0,0.0,-10.81,-11.63,-11.63,0,*69
1546391133.18,16018,0.0,0.0,-10.81,-11.51,-11.63,0,*67
1546391134.45,16019,0.0,0.0,-10.81,-11.55,-11.51,0,*63
1546391135.72,16020,0.0,0.0,-10.81,-11.55,-11.55,0,*6D
1546391136.99,16021,0.0,0.0,-10.81,-11.55,-11.55,0,*6C
1546391138.26,16022,0.0,0.0,-10.81,-11.63,-11.55,0,*6A
1546391139.53,16023,0.0,0.0,-10.81,-11.55,-11.55,0,*6E
1546391140.82,16024,0.0,0.0,-10.83,-11.55,-11.55,0,*6B
1546391142.12,16025,0.0,0.0,-10.83,-11.55,-11.55,0,*6A
1546391143.41,16026,0.0,0.0,-10.83,-11.51,-11.55,0,*6D
1546391144.7,16027,0.0,0.0,-10.83,-11.63,-11.55,0,*6D
1546391146.0,16028,0.0,0.0,-10.83,-11.63,-11.55,0,*62
1546391147.29,16029,0.0,0.0,-10.83,-11.63,-11.55,0,*63
1546391148.59,16030,0.0,0.0,-10.83,-11.63,-11.55,0,*6B
1546391149.89,16031,0.0,0.0,-10.83,-11.63,-11.55,0,*6A
1546391151.18,16032,0.0,0.0,-10.83,-11.55,-11.55,0,*6C
1546391152.47,16033,0.0,0.0,-10.83,-11.55,-11.55,0,*6D
1546391153.77,16034,0.0,0.0,-10.83,-11.55,-11.55,0,*6A
1546391155.04,16035,0.0,0.0,-10.81,-11.55,-11.55,0,*69
1546391156.33,16036,0.0,0.0,-10.83,-11.63,-11.55,0,*6D
1546391157.63,16037,0.0,0.0,-10.83,-11.55,-11.55,0,*69
1546391158.92,16038,0.0,0.0,-10.83,-11.67,-11.55,0,*67
1546391160.22,16039,0.0,0.0,-10.83,-11.63,-11.55,0,*62
1546391161.51,16040,0.0,0.0,-10.83,-11.63,-11.51,0,*68
1546391162.81,16041,0.0,0.0,-10.83,-11.63,-11.55,0,*6D
1546391164.1,16042,0.0,0.0,-10.83,-11.63,-11.51,0,*6A
1546391165.39,16043,0.0,0.0,-10.87,-11.67,-11.59,0,*63
1546391166.69,16044,0.0,0.0,-10.83,-11.67,-11.55,0,*6C
1546391167.98,16045,0.0,0.0,-10.83,-11.55,-11.55,0,*6C
1546391169.27,16046,0.0,0.0,-10.83,-11.67,-11.55,0,*6E
1546391170.57,16047,0.0,0.0,-10.83,-11.55,-11.55,0,*6E
1546391171.86,16048,0.0,0.0,-10.83,-11.55,-11.55,0,*61
1546391173.16,16049,0.0,0.0,-10.83,-11.63,-11.51,0,*61
1546391174.45,16050,0.0,0.0,-10.87,-11.59,-11.59,0,*6C
1546391175.74,16051,0.0,0.0,-10.83,-11.55,-11.51,0,*6D
1546391177.03,16052,0.0,0.0,-10.83,-11.63,-11.55,0,*6F
1546391178.33,16053,0.0,0.0,-10.83,-11.63,-11.55,0,*6E
1546391179.63,16054,0.0,0.0,-10.83,-11.63,-11.55,0,*69
1546391180.92,16055,0.0,0.0,-10.83,-11.63,-11.55,0,*68
1546391182.22,16056,0.0,0.0,-10.83,-11.63,-11.55,0,*6B
1546391183.51,16057,0.0,0.0,-10.83,-11.55,-11.55,0,*6F
1546391184.8,16058,0.0,0.0,-10.83,-11.63,-11.51,0,*61
1546391186.1,16059,0.0,0.0,-10.83,-11.55,-11.55,0,*61
1546391187.39,16060,0.0,0.0,-10.83,-11.55,-11.51,0,*6F
1546391188.68,16061,0.0,0.0,-10.83,-11.55,-11.55,0,*6A
1546391189.98,16062,0.0,0.0,-10.87,-11.59,-11.59,0,*6D
1546391191.27,16063,0.0,0.0,-10.83,-11.55,-11.55,0,*68
1546391192.56,16064,0.0,0.0,-10.87,-11.59,-11.59,0,*6B
1546391193.85,16065,0.0,0.0,-10.83,-11.55,-11.51,0,*6A
1546391195.15,16066,0.0,0.0,-10.83,-11.63,-11.55,0,*68
1546391196.44,16067,0.0,0.0,-10.83,-11.55,-11.55,0,*6C
1546391197.74,16068,0.0,0.0,-10.83,-11.55,-11.55,0,*63
1546391199.03,16069,0.0,0.0,-10.83,-11.55,-11.51,0,*66
1546391200.32,16070,0.0,0.0,-10.87,-11.67,-11.59,0,*63
1546391201.62,16071,0.0,0.0,-10.83,-11.63,-11.55,0,*6E
1546391202.91,16072,0.0,0.0,-10.87,-11.59,-11.55,0,*60
1546391204.2,16073,0.0,0.0,-10.87,-11.59,-11.51,0,*65
1546391205.49,16074,0.0,0.0,-10.87,-11.59,-11.59,0,*6A
1546391206.79,16075,0.0,0.0,-10.87,-11.67,-11.55,0,*6A
1546391208.08,16076,0.0,0.0,-10.87,-11.67,-11.59,0,*65
1546391209.37,16077,0.0,0.0,-10.87,-11.59,-11.59,0,*69
1546391210.67,16078,0.0,0.0,-10.87,-11.59,-11.59,0,*66
1546391211.96,16079,0.0,0.0,-10.87,-11.67,-11.55,0,*66
1546391213.26,16080,0.0,0.0,-10.83,-11.63,-11.55,0,*60
1546391214.55,16081,0.0,0.0,-10.83,-11.63,-11.51,0,*65
1546391215.84,16082,0.0,0.0,-10.87,-11.67,-11.59,0,*6E
1546391217.13,16083,0.0,0.0,-10.83,-11.55,-11.51,0,*62
1546391218.42,16084,0.0,0.0,-10.83,-11.63,-11.51,0,*60
1546391219.72,16085,0.0,0.0,-10.83,-11.63,-11.63,0,*60
1546391221.02,16086,0.0,0.0,-10.83,-11.63,-11.63,0,*63
1546391222.32,16087,0.0,0.0,-10.83,-11.63,-11.55,0,*67
1546391223.61,16088,0.0,0.0,-10.83,-11.63,-11.55,0,*68
1546391224.91,16089,0.0,0.0,-10.87,-11.59,-11.59,0,*68
1546391226.2,16090,0.0,0.0,-10.87,-11.67,-11.59,0,*6D
1546391227.49,16091,0.0,0.0,-10.83,-11.55,-11.51,0,*61
1546391228.79,16092,0.0,0.0,-10.83,-11.55,-11.63,0,*63
1546391230.08,16093,0.0,0.0,-10.83,-11.55,-11.51,0,*63
1546391231.37,16094,0.0,0.0,-10.83,-11.55,-11.55,0,*60
1546391232.66,16095,0.0,0.0,-10.87,-11.59,-11.59,0,*65
1546391233.96,16096,0.0,0.0,-10.87,-11.59,-11.59,0,*66
1546391235.25,16097,0.0,0.0,-10.83,-11.55,-11.51,0,*67
1546391236.54,16098,0.0,0.0,-10.87,-11.59,-11.59,0,*68
1546391237.83,16099,0.0,0.0,-10.87,-11.67,-11.59,0,*64
1546391239.13,16100,0.0,0.0,-10.83,-11.63,-11.51,0,*6D
1546391240.42,16101,0.0,0.0,-10.87,-11.67,-11.59,0,*64
1546391241.71,16102,0.0,0.0,-10.87,-11.67,-11.59,0,*67
1546391243.0,16103,0.0,0.0,-10.87,-11.67,-11.59,0,*66
1546391244.29,16104,0.0,0.0,-10.83,-11.51,-11.51,0,*68
1546391245.58,16105,0.0,0.0,-10.87,-11.73,-11.59,0,*65
1546391246.87,16106,0.0,0.0,-10.87,-11.67,-11.55,0,*6F
1546391248.16,16107,0.0,0.0,-10.87,-11.67,-11.59,0,*62
1546391249.46,16108,0.0,0.0,-10.87,-11.67,-11.59,0,*6D
1546391250.75,16109,0.0,0.0,-10.87,-11.59,-11.59,0,*61
1546391252.04,16110,0.0,0.0,-10.87,-11.67,-11.59,0,*64
1546391253.33,16111,0.0,0.0,-10.87,-11.59,-11.55,0,*64
1546391254.63,16112,0.0,0.0,-10.87,-11.67,-11.55,0,*6A
1546391255.92,16113,0.0,0.0,-10.83,-11.63,-11.55,0,*6B
1546391257.22,16114,0.0,0.0,-10.87,-11.59,-11.59,0,*6D
1546391258.51,16115,0.0,0.0,-10.83,-11.67,-11.55,0,*69
1546391259.8,16116,0.0,0.0,-10.83,-11.63,-11.59,0,*62
1546391261.1,16117,0.0,0.0,-10.87,-11.67,-11.59,0,*63
1546391262.39,16118,0.0,0.0,-10.83,-11.63,-11.59,0,*6C
1546391263.68,16119,0.0,0.0,-10.87,-11.59,-11.59,0,*60
1546391264.97,16120,0.0,0.0,-10.87,-11.59,-11.59,0,*6A
1546391266.26,16121,0.0,0.0,-10.87,-11.67,-11.59,0,*66
1546391267.56,16122,0.0,0.0,-10.87,-11.67,-11.59,0,*65
1546391268.85,16123,0.0,0.0,-10.87,-11.67,-11.59,0,*64
1546391270.14,16124,0.0,0.0,-10.87,-11.67,-11.59,0,*63
1546391271.43,16125,0.0,0.0,-10.87,-11.67,-11.59,0,*62
1546391272.73,16126,0.0,0.0,-10.83,-11.51,-11.55,0,*6C
1546391274.02,16127,0.0,0.0,-10.87,-11.59,-11.67,0,*60
1546391275.31,16128,0.0,0.0,-10.87,-11.55,-11.59,0,*6E
1546391276.61,16129,0.0,0.0,-10.87,-11.59,-11.55,0,*6F
1546391277.9,16130,0.0,0.0,-10.87,-11.67,-11.59,0,*66
1546391279.19,16131,0.0,0.0,-10.87,-11.67,-11.59,0,*67
1546391280.46,16132,0.0,0.0,-10.89,-11.67,-11.59,0,*6A
1546391281.72,16133,0.0,0.0,-10.89,-11.67,-11.59,0,*6B
1546391282.99,16134,0.0,0.0,-10.89,-11.59,-11.67,0,*6C
1546391284.28,16135,0.0,0.0,-10.87,-11.59,-11.67,0,*63
1546391285.58,16136,0.0,0.0,-10.83,-11.55,-11.55,0,*69
1546391286.87,16137,0.0,0.0,-10.87,-11.67,-11.59,0,*61
1546391288.16,16138,0.0,0.0,-10.87,-11.67,-11.59,0,*6E
1546391289.46,16139,0.0,0.0,-10.87,-11.59,-11.55,0,*6E
1546391290.75,16140,0.0,0.0,-10.87,-11.59,-11.59,0,*6C
1546391292.02,16141,0.0,0.0,-10.89,-11.67,-11.59,0,*6E
1546391293.28,16142,0.0,0.0,-10.89,-11.67,-11.59,0,*6D
1546391294.55,16143,0.0,0.0,-10.89,-11.59,-11.55,0,*6D
1546391295.84,16144,0.0,0.0,-10.87,-11.59,-11.55,0,*64
1546391297.14,16145,0.0,0.0,-10.87,-11.59,-11.59,0,*69
1546391298.4,16146,0.0,0.0,-10.89,-11.67,-11.59,0,*69
1546391299.67,16147,0.0,0.0,-10.89,-11.67,-11.59,0,*68
1546391300.96,16148,0.0,0.0,-10.87,-11.67,-11.55,0,*65
1546391302.26,16149,0.0,0.0,-10.87,-11.67,-11.55,0,*64
1546391303.55,16150,0.0,0.0,-10.87,-11.59,-11.59,0,*6D
1546391304.84,16151,0.0,0.0,-10.87,-11.67,-11.59,0,*61
1546391306.11,16152,0.0,0.0,-10.89,-11.55,-11.59,0,*6D
1546391307.4,16153,0.0,0.0,-10.87,-11.55,-11.59,0,*62
1546391308.69,16154,0.0,0.0,-10.87,-11.67,-11.67,0,*69
1546391309.99,16155,0.0,0.0,-10.87,-11.67,-11.55,0,*69
1546391311.28,16156,0.0,0.0,-10.87,-11.67,-11.59,0,*66
1546391312.57,16157,0.0,0.0,-10.87,-11.67,-11.55,0,*6B
1546391313.87,16158,0.0,0.0,-10.91,-11.63,-11.63,0,*62
1546391315.14,16159,0.0,0.0,-10.89,-11.59,-11.59,0,*6A
1546391316.4,16160,0.0,0.0,-10.89,-11.73,-11.59,0,*68
1546391317.67,16161,0.0,0.0,-10.89,-11.67,-11.55,0,*60
1546391318.93,16162,0.0,0.0,-10.89,-11.59,-11.59,0,*62
1546391320.2,16163,0.0,0.0,-10.89,-11.67,-11.55,0,*62
1546391321.47,16164,0.0,0.0,-10.89,-11.67,-11.59,0,*69
1546391322.73,16165,0.0,0.0,-10.89,-11.59,-11.59,0,*65
1546391324.03,16166,0.0,0.0,-10.87,-11.59,-11.59,0,*68
1546391325.32,16167,0.0,0.0,-10.87,-11.67,-11.59,0,*64
1546391326.61,16168,0.0,0.0,-10.87,-11.67,-11.59,0,*6B
1546391327.9,16169,0.0,0.0,-10.87,-11.67,-11.59,0,*6A
1546391329.17,16170,0.0,0.0,-10.89,-11.67,-11.59,0,*6C
1546391330.43,16171,0.0,0.0,-10.89,-11.59,-11.59,0,*60
1546391331.7,16172,0.0,0.0,-10.89,-11.59,-11.67,0,*6E
1546391332.97,16173,0.0,0.0,-10.89,-11.67,-11.59,0,*6F
1546391334.24,16174,0.0,0.0,-10.89,-11.59,-11.55,0,*69
1546391335.5,16175,0.0,0.0,-10.89,-11.73,-11.55,0,*60
1546391336.76,16176,0.0,0.0,-10.89,-11.67,-11.59,0,*6A
1546391338.06,16177,0.0,0.0,-10.87,-11.67,-11.59,0,*65
1546391339.32,16178,0.0,0.0,-10.89,-11.73,-11.59,0,*61
1546391340.58,16179,0.0,0.0,-10.89,-11.67,-11.59,0,*65
1546391341.85,16180,0.0,0.0,-10.89,-11.67,-11.55,0,*6F
1546391343.12,16181,0.0,0.0,-10.89,-11.59,-11.59,0,*6F
1546391344.38,16182,0.0,0.0,-10.89,-11.59,-11.55,0,*60
1546391345.65,16183,0.0,0.0,-10.89,-11.59,-11.59,0,*6D
1546391346.92,16184,0.0,0.0,-10.89,-11.67,-11.59,0,*67
1546391348.2,16185,0.0,0.0,-10.91,-11.73,-11.59,0,*6A
1546391349.47,16186,0.0,0.0,-10.89,-11.59,-11.59,0,*68
1546391350.73,16187,0.0,0.0,-10.89,-11.67,-11.59,0,*64
1546391352.0,16188,0.0,0.0,-10.89,-11.73,-11.63,0,*67
1546391353.29,16189,0.0,0.0,-10.91,-11.73,-11.63,0,*6F
1546391354.56,16190,0.0,0.0,-10.89,-11.67,-11.59,0,*62
1546391355.83,16191,0.0,0.0,-10.89,-11.67,-11.55,0,*6F
1546391357.09,16192,0.0,0.0,-10.89,-11.67,-11.59,0,*60